Location: 5810 Zion Rd, Cleves, OH 45002, USA
(39.1922°N, 84.7113°W)
Time: 15:31:23
(UTC-05:00)

Transit 2A Rocket - All Passes

Search period start: 15 December 2019 00:00
Search period end: 25 December 2019 00:00
Orbit: 594 x 909 km, 66.7° (Epoch: 15 December)

Date Brightness Start Highest point End Pass type
(mag) Time Alt. Az. Time Alt. Az. Time Alt. Az.
15 Dec - 01:30:23 10° NW 01:34:44 44° WSW 01:39:26 10° S night (unlit)
15 Dec - 14:23:39 10° SSE 14:26:34 17° ESE 14:29:23 10° ENE daylight
15 Dec - 16:04:24 10° SW 16:08:45 44° WNW 16:12:56 10° NNE daylight
15 Dec - 23:07:15 10° NNE 23:09:14 13° NE 23:11:16 10° ENE night (unlit)
16 Dec - 00:47:42 10° NNW 00:52:16 84° WSW 00:57:13 10° SSE night (unlit)
16 Dec - 15:21:37 10° SSW 15:26:12 85° WNW 15:30:34 10° NNE daylight
16 Dec - 17:08:44 10° NW 17:09:21 10° NW 17:09:58 10° NW daylight
17 Dec - 00:05:17 10° NNW 00:09:44 53° ENE 00:14:32 10° SE night (unlit)
17 Dec - 01:49:04 10° WNW 01:51:55 16° WSW 01:54:53 10° SW night (unlit)
17 Dec - 14:39:18 10° S 14:43:43 49° ESE 14:47:56 10° NE daylight
17 Dec - 16:23:28 10° W 16:26:29 17° NW 16:29:26 10° N daylight
17 Dec - 23:23:06 10° N 23:27:06 30° NE 23:31:21 10° ESE night (unlit)
18 Dec - 01:05:33 10° NW 01:09:34 29° WSW 01:13:52 10° S night (unlit)
18 Dec - 13:57:35 10° SSE 14:01:21 25° ESE 14:04:57 10° NE daylight
18 Dec - 15:39:46 10° WSW 15:43:44 30° NW 15:47:34 10° N daylight
18 Dec - 22:41:16 10° N 22:44:22 18° NE 22:47:35 10° E night (unlit)
19 Dec - 00:22:39 10° NW 00:27:09 55° WSW 00:32:01 10° SSE night (unlit)
19 Dec - 13:16:55 10° SE 13:19:01 13° ESE 13:21:06 10° ENE daylight
19 Dec - 14:56:39 10° SW 15:01:06 55° WNW 15:05:22 10° NNE daylight
19 Dec - 22:00:30 10° NNE 22:01:29 11° NE 22:02:27 10° NE night (unlit)
19 Dec - 23:40:04 10° NNW 23:44:40 79° ENE 23:49:38 10° SSE night (unlit)
20 Dec - 01:25:56 10° W 01:26:40 10° WSW 01:27:24 10° WSW night (unlit)
20 Dec - 14:14:02 10° SSW 14:18:35 76° ESE 14:22:55 10° NNE daylight
20 Dec - 15:59:44 10° WNW 16:01:36 12° NW 16:03:26 10° NNW daylight
20 Dec - 22:57:44 10° NNW 23:02:05 43° ENE 23:06:47 10° SE night (unlit)
21 Dec - 00:40:57 10° WNW 00:44:23 20° WSW 00:47:59 10° SSW night (unlit)
21 Dec - 13:31:55 10° S 13:36:08 38° ESE 13:40:11 10° NE daylight
21 Dec - 15:15:22 10° W 15:18:45 21° NW 15:22:04 10° N daylight
21 Dec - 22:15:38 10° N 22:19:26 25° NE 22:23:25 10° ESE night (unlit)
21 Dec - 23:57:44 10° NW 00:02:01 37° WSW 00:06:35 10° S night (unlit)
22 Dec - 12:50:28 10° SSE 12:53:47 20° ESE 12:56:59 10° ENE daylight
22 Dec - 14:31:54 10° WSW 14:36:03 36° NW 14:40:05 10° NNE daylight
22 Dec - 21:33:58 10° NNE 21:36:38 15° NE 21:39:24 10° E night (unlit)
22 Dec - 23:14:58 10° NW 23:19:33 69° WSW 23:24:33 10° SSE night (unlit)
23 Dec - 12:11:23 10° ESE 12:11:30 10° ESE 12:11:37 10° ESE daylight
23 Dec - 13:48:58 10° SW 13:53:28 70° WNW 13:57:47 10° NNE daylight
23 Dec - 22:32:27 10° NNW 22:37:02 64° ENE 22:42:00 10° SE night (unlit)
24 Dec - 00:16:51 10° WNW 00:19:08 13° WSW 00:21:31 10° SW night (unlit)
24 Dec - 13:06:30 10° SSW 13:10:58 60° ESE 13:15:14 10° NE daylight
24 Dec - 14:51:20 10° W 14:53:50 15° NW 14:56:19 10° NNW daylight
24 Dec - 21:50:12 10° NNW 21:54:26 35° NE 21:58:59 10° ESE night (unlit)
24 Dec - 23:33:00 10° NW 23:36:49 25° WSW 23:40:54 10° SSW night (unlit)
